TimeCST,TemperatureF,Dew PointF,Humidity,Sea Level PressureIn,VisibilityMPH,Wind Direction,Wind SpeedMPH,Gust SpeedMPH,PrecipitationIn,Events,Conditions,WindDirDegrees,DateUTC
12:53 AM,6.1,3.0,87,30.34,10.0,West,8.1,-,N/A,,Mostly Cloudy,280,2013-02-15 06:53:00
1:53 AM,3.9,1.0,88,30.34,10.0,WNW,5.8,-,N/A,,Clear,290,2013-02-15 07:53:00
2:53 AM,-0.9,-4.0,87,30.36,10.0,Calm,Calm,-,N/A,,Clear,0,2013-02-15 08:53:00
3:53 AM,-2.0,-4.0,91,30.36,10.0,Calm,Calm,-,N/A,,Mostly Cloudy,0,2013-02-15 09:53:00
4:53 AM,-0.9,-4.0,87,30.36,10.0,Calm,Calm,-,N/A,,Mostly Cloudy,0,2013-02-15 10:53:00
5:53 AM,1.0,-2.0,87,30.37,10.0,Calm,Calm,-,N/A,,Overcast,0,2013-02-15 11:53:00
6:09 AM,1.4,-0.4,92,30.24,10.0,Calm,Calm,-,N/A,,Overcast,0,2013-02-15 12:09:00
6:53 AM,3.0,-0.0,87,30.37,10.0,Calm,Calm,-,N/A,,Overcast,0,2013-02-15 12:53:00
7:53 AM,3.9,1.0,88,30.38,10.0,Calm,Calm,-,N/A,,Overcast,0,2013-02-15 13:53:00
8:36 AM,3.2,1.4,92,30.26,10.0,Calm,Calm,-,N/A,,Overcast,0,2013-02-15 14:36:00
8:53 AM,3.9,3.0,96,30.40,10.0,Calm,Calm,-,N/A,,Overcast,0,2013-02-15 14:53:00
9:53 AM,7.0,5.0,92,30.41,7.0,Calm,Calm,-,N/A,,Overcast,0,2013-02-15 15:53:00
10:53 AM,10.0,6.1,84,30.42,10.0,Calm,Calm,-,N/A,,Overcast,0,2013-02-15 16:53:00
11:53 AM,12.9,8.1,81,30.43,10.0,North,6.9,-,N/A,,Overcast,350,2013-02-15 17:53:00
12:53 PM,14.0,9.0,80,30.41,10.0,Calm,Calm,-,N/A,,Overcast,0,2013-02-15 18:53:00
1:14 PM,15.8,8.6,73,30.30,10.0,NW,3.5,-,N/A,,Scattered Clouds,320,2013-02-15 19:14:00
1:53 PM,16.0,9.0,74,30.42,10.0,NNW,9.2,-,N/A,,Clear,330,2013-02-15 19:53:00
2:17 PM,15.8,10.4,79,30.30,10.0,NNW,12.7,-,N/A,,Mostly Cloudy,330,2013-02-15 20:17:00
2:53 PM,16.0,10.0,77,30.42,10.0,NNW,10.4,-,N/A,,Overcast,330,2013-02-15 20:53:00
3:53 PM,16.0,10.0,77,30.43,10.0,NW,10.4,-,N/A,,Mostly Cloudy,320,2013-02-15 21:53:00
4:08 PM,15.8,8.6,73,30.30,10.0,NW,11.5,-,N/A,,Scattered Clouds,320,2013-02-15 22:08:00
4:45 PM,15.8,8.6,73,30.30,10.0,NNW,10.4,-,N/A,,Mostly Cloudy,330,2013-02-15 22:45:00
4:53 PM,14.0,9.0,80,30.43,8.0,NNW,9.2,-,N/A,,Mostly Cloudy,330,2013-02-15 22:53:00
5:53 PM,12.0,8.1,84,30.42,9.0,WNW,6.9,-,N/A,,Mostly Cloudy,290,2013-02-15 23:53:00
6:53 PM,9.0,6.1,88,30.41,10.0,West,5.8,-,N/A,,Overcast,270,2013-02-16 00:53:00
7:53 PM,8.1,6.1,92,30.40,10.0,West,5.8,-,N/A,,Overcast,270,2013-02-16 01:53:00
8:13 PM,8.6,6.8,92,30.27,10.0,West,6.9,-,N/A,,Overcast,280,2013-02-16 02:13:00
8:53 PM,10.9,9.0,92,30.38,8.0,West,8.1,-,N/A,,Overcast,280,2013-02-16 02:53:00
9:39 PM,6.8,5.0,92,30.24,10.0,WSW,6.9,-,N/A,,Scattered Clouds,250,2013-02-16 03:39:00
9:53 PM,5.0,3.9,95,30.37,10.0,WSW,8.1,-,N/A,,Clear,250,2013-02-16 03:53:00
10:28 PM,3.2,3.2,100,30.22,2.0,WSW,10.4,-,N/A,,Partly Cloudy,250,2013-02-16 04:28:00
10:30 PM,3.2,3.2,100,30.22,1.0,WSW,9.2,-,N/A,,Mist,250,2013-02-16 04:30:00
10:36 PM,3.2,3.2,100,30.22,0.2,WSW,9.2,-,N/A,Fog,Light Freezing Fog,250,2013-02-16 04:36:00
10:53 PM,3.9,3.9,100,30.35,1.0,WSW,6.9,-,N/A,,Mist,240,2013-02-16 04:53:00
11:03 PM,5.0,3.2,92,30.22,0.8,WSW,8.1,-,N/A,,Mist,240,2013-02-16 05:03:00
11:53 PM,7.0,5.0,92,30.32,0.2,WSW,6.9,-,N/A,Fog,Light Freezing Fog,240,2013-02-16 05:53:00